Weather History for KMZZ - February, 2014

Change the Weather History Date:

Friday, February 28, 2014

  Actual Average (KMIE) Record (KMIE)
Temperature  
Mean Temperature 18 °F 34 °F  
Max Temperature 52 °F 42 °F - ()
Min Temperature 3 °F 25 °F - ()
Degree Days  
Heating Degree Days 48 31  
Month to date heating degree days 988  
Since 1 July heating degree days 4383  
Cooling Degree Days 0 0  
Month to date cooling degree days 0  
Year to date cooling degree days 0  
Moisture  
Dew Point 3 °F    
Average Humidity 55    
Maximum Humidity 80    
Minimum Humidity 32    
Precipitation  
Precipitation 0.00 in 0.09 in - ()
Month to date precipitation 2.31  
Year to date precipitation 4.54  
Sea Level Pressure  
Sea Level Pressure 30.15 in    
Wind  
Wind Speed 7 mph (SE)    
Max Wind Speed 14 mph    
Max Gust Speed 20 mph    
Visibility 8 miles    
Events Snow    
T = Trace of Precipitation, MM = Missing Value Source: NWS Daily Summary

Daily Weather History Graph

Daily Weather History Graph

Search for Another Location

Airport or City:

Trip Planner

Search our weather history database for the weather conditions in past years. The results will help you decide how hot, cold, wet, or windy it might be!

Date:

Astronomy

Feb. 28, 2014 Rise Set
Actual Time 7:17 AM EST 6:33 PM EST
Civil Twilight 6:50 AM EST 7:00 PM EST
Nautical Twilight 6:18 AM EST 7:32 PM EST
Astronomical Twilight 5:47 AM EST 8:03 PM EST
Moon 6:32 AM EST (2/28) 6:09 PM EST (2/28)
Length of Visible Light 12h 09m
Length of Day
11h 15m
Waning Crescent, 1% of the Moon is Illuminated
Feb 28
Waning Crescent
Mar 1
New
Mar 8
First Quarter
Mar 16
Full
Mar 23
Last Quarter

Hourly Weather History & Observations

Time (EST) Temp. Windchill Dew Point Humidity Pressure Visibility Wind Dir Wind Speed Gust Speed Precip Events Conditions
12:15 AM 5.5 °F -3.4 °F -0.4 °F 77% 30.18 in 7.0 mi NE 4.6 mph - N/A   Clear
12:35 AM 5.2 °F -3.8 °F -0.4 °F 78% 30.18 in 5.0 mi NE 4.6 mph - N/A   Haze
12:55 AM 5.0 °F - -0.6 °F 78% 30.18 in 3.0 mi Calm Calm - N/A Snow Light Snow
1:15 AM 4.8 °F -2.3 °F -0.6 °F 78% 30.19 in 5.0 mi NE 3.5 mph - N/A Snow Light Snow
1:35 AM 4.5 °F - -0.6 °F 80% 30.19 in 10.0 mi Calm Calm - N/A   Clear
1:55 AM 4.1 °F -3.2 °F -1.1 °F 79% 30.19 in 10.0 mi East 3.5 mph - N/A   Clear
2:15 AM 4.1 °F -5.1 °F -1.3 °F 78% 30.20 in 10.0 mi East 4.6 mph - N/A   Clear
2:35 AM 4.3 °F -4.9 °F -1.3 °F 78% 30.20 in 10.0 mi East 4.6 mph - N/A   Clear
2:55 AM 4.1 °F -5.1 °F -1.5 °F 78% 30.20 in 10.0 mi East 4.6 mph - N/A   Clear
3:15 AM 3.7 °F -7.1 °F -1.7 °F 78% 30.19 in 10.0 mi East 5.8 mph - N/A   Clear
3:30 AM 3.9 °F -8.2 °F -1.5 °F 78% 30.19 in 10.0 mi East 6.9 mph - N/A   Clear
3:55 AM 4.1 °F -5.1 °F -2.0 °F 76% 30.19 in 4.0 mi East 4.6 mph - N/A Snow Light Snow
4:15 AM 4.1 °F -5.1 °F -2.7 °F 73% 30.20 in 3.0 mi ESE 4.6 mph - N/A Snow Light Snow
4:35 AM 3.9 °F -6.9 °F -3.1 °F 73% 30.20 in 4.0 mi ESE 5.8 mph - N/A Snow Light Snow
4:55 AM 3.9 °F -6.9 °F -3.1 °F 73% 30.20 in 10.0 mi East 5.8 mph - N/A   Clear
5:15 AM 4.1 °F -6.7 °F -3.5 °F 71% 30.20 in 10.0 mi East 5.8 mph - N/A   Clear
5:35 AM 4.1 °F -6.7 °F -3.6 °F 70% 30.20 in 10.0 mi ESE 5.8 mph - N/A   Clear
5:55 AM 4.1 °F -8.0 °F -3.8 °F 70% 30.20 in 10.0 mi East 6.9 mph - N/A   Clear
6:15 AM 4.5 °F -7.6 °F -3.6 °F 69% 30.20 in 10.0 mi ESE 6.9 mph - N/A   Clear
6:35 AM 4.6 °F -7.4 °F -3.8 °F 68% 30.21 in 10.0 mi ESE 6.9 mph - N/A   Clear
6:55 AM 4.8 °F -8.3 °F -4.0 °F 67% 30.21 in 10.0 mi ESE 8.1 mph - N/A   Clear
7:15 AM 5.0 °F -6.9 °F -4.0 °F 66% 30.21 in 2.5 mi ESE 6.9 mph - N/A Snow Light Snow
7:35 AM 5.4 °F -6.5 °F -3.8 °F 66% 30.22 in 10.0 mi ESE 6.9 mph - N/A   Clear
7:55 AM 6.1 °F -8.7 °F -3.5 °F 65% 30.23 in 2.5 mi SE 10.4 mph - N/A Snow Light Snow
8:10 AM 6.8 °F -6.9 °F -2.7 °F 65% 30.23 in 3.0 mi SE 9.2 mph - N/A Snow Light Snow
8:35 AM 7.9 °F -5.5 °F -1.7 °F 65% 30.24 in 10.0 mi SE 9.2 mph - N/A   Clear
8:55 AM 9.3 °F -6.8 °F -0.9 °F 63% 30.24 in 10.0 mi SE 13.8 mph - N/A   Clear
9:15 AM 10.6 °F -4.5 °F -0.4 °F 61% 30.23 in 10.0 mi SSE 12.7 mph 17.3 mph N/A   Clear
9:35 AM 11.8 °F -2.3 °F 0.7 °F 61% 30.24 in 10.0 mi SE 11.5 mph - N/A   Clear
9:55 AM 13.3 °F -1.8 °F 1.0 °F 58% 30.24 in 10.0 mi SSE 13.8 mph - N/A   Clear
10:15 AM 14.9 °F 1.6 °F 1.6 °F 56% 30.24 in 5.0 mi SSE 11.5 mph - N/A   Haze
10:35 AM 16.2 °F 2.5 °F 1.8 °F 53% 30.24 in 10.0 mi SE 12.7 mph - N/A   Clear
10:55 AM 17.1 °F 5.8 °F 2.1 °F 52% 30.23 in 10.0 mi South 9.2 mph - N/A   Clear
11:15 AM 17.8 °F 5.9 °F 2.1 °F 50% 30.22 in 5.0 mi SSE 10.4 mph - N/A   Haze
11:35 AM 20.1 °F 7.5 °F 2.8 °F 47% 30.21 in 10.0 mi South 12.7 mph - N/A   Clear
11:55 AM 21.2 °F 8.9 °F 2.5 °F 44% 30.20 in 10.0 mi South 12.7 mph - N/A   Clear
12:15 PM 22.1 °F 10.0 °F 2.8 °F 43% 30.19 in 10.0 mi SSE 12.7 mph 18.4 mph N/A   Clear
12:35 PM 23.5 °F 13.0 °F 3.4 °F 42% 30.19 in 7.0 mi SE 10.4 mph - N/A   Clear
12:55 PM 24.4 °F 14.9 °F 3.4 °F 40% 30.19 in 5.0 mi SE 9.2 mph - N/A   Haze
1:15 PM 25.3 °F 15.3 °F 2.8 °F 38% 30.17 in 10.0 mi SSE 10.4 mph 16.1 mph N/A   Clear
1:35 PM 26.4 °F 16.0 °F 3.0 °F 37% 30.15 in 3.0 mi SE 11.5 mph - N/A   Haze
1:55 PM 27.1 °F 15.9 °F 3.7 °F 37% 30.14 in 4.0 mi SSE 13.8 mph 19.6 mph N/A   Haze
2:15 PM 28.4 °F 21.2 °F 3.7 °F 35% 30.14 in 3.0 mi SSE 6.9 mph 17.3 mph N/A Snow Light Snow
2:35 PM 29.3 °F 19.6 °F 3.2 °F 33% 30.13 in 10.0 mi SSE 11.5 mph 17.3 mph N/A   Clear
2:55 PM 30.0 °F 21.7 °F 3.9 °F 33% 30.13 in 7.0 mi South 9.2 mph - N/A   Clear
3:15 PM 30.6 °F 21.2 °F 4.5 °F 33% 30.12 in 10.0 mi SSE 11.5 mph - N/A   Clear
3:35 PM 31.1 °F 20.9 °F 4.5 °F 32% 30.11 in 10.0 mi South 13.8 mph 17.3 mph N/A   Clear
3:55 PM 31.3 °F 23.3 °F 5.2 °F 33% 30.10 in 7.0 mi SSE 9.2 mph - N/A   Clear
4:15 PM 31.6 °F 23.1 °F 5.4 °F 33% 30.09 in 10.0 mi SE 10.4 mph 17.3 mph N/A   Clear
4:35 PM 31.8 °F 22.3 °F 6.3 °F 34% 30.08 in 10.0 mi SSE 12.7 mph - N/A   Clear
4:55 PM 32.0 °F 23.6 °F 5.7 °F 33% 30.08 in 5.0 mi SE 10.4 mph - N/A   Haze
5:15 PM 32.0 °F 22.5 °F 6.6 °F 34% 30.06 in 10.0 mi SSE 12.7 mph - N/A   Clear
5:35 PM 32.0 °F 23.6 °F 6.8 °F 35% 30.06 in 4.0 mi SSE 10.4 mph - N/A Snow Light Snow
5:55 PM 31.8 °F 23.3 °F 7.3 °F 36% 30.06 in 10.0 mi SSE 10.4 mph - N/A   Clear
6:15 PM 31.3 °F 23.3 °F 8.4 °F 38% 30.05 in 10.0 mi SSE 9.2 mph - N/A   Clear
6:35 PM 30.6 °F 23.1 °F 9.3 °F 41% 30.05 in 10.0 mi SSE 8.1 mph - N/A   Clear
6:55 PM 30.0 °F 22.4 °F 9.9 °F 43% 30.05 in 10.0 mi SSE 8.1 mph - N/A   Clear
7:15 PM 29.8 °F 23.9 °F 9.9 °F 43% 30.06 in 10.0 mi SE 5.8 mph - N/A   Clear
7:35 PM 29.3 °F 22.3 °F 10.9 °F 46% 30.05 in 10.0 mi SE 6.9 mph - N/A   Clear
7:55 PM 28.2 °F 23.1 °F 12.6 °F 52% 30.06 in 10.0 mi SE 4.6 mph - N/A   Clear
8:15 PM 27.7 °F 20.4 °F 12.6 °F 53% 30.06 in 10.0 mi SE 6.9 mph - N/A   Clear
8:35 PM 28.0 °F 21.7 °F 11.3 °F 50% 30.06 in 10.0 mi SE 5.8 mph - N/A   Clear
8:55 PM 27.5 °F 22.2 °F 11.1 °F 50% 30.07 in 10.0 mi SSE 4.6 mph - N/A   Clear
9:15 PM 27.0 °F 20.5 °F 11.5 °F 52% 30.07 in 3.0 mi SE 5.8 mph - N/A Snow Light Snow
9:35 PM 27.0 °F 20.5 °F 11.5 °F 52% 30.07 in 7.0 mi SE 5.8 mph - N/A   Clear
9:55 PM 27.1 °F 19.7 °F 11.3 °F 51% 30.07 in 10.0 mi SSE 6.9 mph - N/A   Clear
10:15 PM 27.3 °F 19.1 °F 11.1 °F 51% 30.08 in 10.0 mi SSE 8.1 mph - N/A   Clear
10:35 PM 27.0 °F 18.7 °F 11.7 °F 53% 30.08 in 5.0 mi SSE 8.1 mph - N/A   Haze
10:55 PM 26.8 °F 18.5 °F 11.1 °F 52% 30.07 in 10.0 mi SSE 8.1 mph - N/A   Clear
11:15 PM 27.1 °F 18.9 °F 10.4 °F 49% 30.06 in 10.0 mi SSE 8.1 mph - N/A   Clear
11:35 PM 27.0 °F 19.5 °F 10.9 °F 51% 30.06 in 10.0 mi SSE 6.9 mph - N/A   Clear
11:55 PM 27.1 °F 19.7 °F 11.8 °F 53% 30.05 in 5.0 mi SSE 6.9 mph - N/A   Haze